Location: Heidgraben
(53.7081°N, 9.6576°E)
Time: 10:59:41
(UTC+00:00)

Cosmos 304 Rocket - Pass Details

Date: 05 July 2020
Orbit: 679 x 688 km, 74.0° (Epoch: 05 August)

Event Time Altitude Azimuth Distance (km) Brightness Sun altitude
Rises 22:46:49 0° 335° (NNW) 3,071 8.7 -13.2°
Reaches altitude 10° 22:49:11 10° 339° (NNW) 2,151 7.7 -13.2°
Maximum altitude 22:53:58 57° 59° (ENE) 812 4.3 -13.3°
Enters shadow 22:58:05 14° 136° (SE) 1,903 5.6 -13.4°
